| time (UTC) | temp C | wind direction | speed KPH | gust KPH | rain 1hr cm | rain 24hr cm | rain mn cm | humidity % | barometer mb |
| 20260510060815 | 5 | 166 | 0.0 | 0.0 | 0.00 | 0.00 | 0.00 | 80 | 1019.7 |
| 20260510060313 | 5 | 166 | 0.0 | 0.0 | 0.00 | 0.00 | 0.00 | 82 | 1019.7 |
| 20260510055809 | 5 | 141 | 0.0 | 0.0 | 0.00 | 0.00 | 0.00 | 80 | 1019.9 |
| 20260510055308 | 5 | 165 | 0.0 | 0.0 | 0.00 | 0.00 | 0.00 | 79 | 1019.6 |
| 20260510054807 | 5 | 156 | 0.0 | 0.0 | 0.00 | 0.00 | 0.00 | 81 | 1019.6 |
| 20260510054303 | 6 | 156 | 0.0 | 0.0 | 0.00 | 0.00 | 0.00 | 76 | 1019.6 |
| 20260510053758 | 6 | 192 | 0.0 | 0.0 | 0.00 | 0.00 | 0.00 | 70 | 1019.3 |
| 20260510053254 | 5 | 197 | 0.0 | 0.0 | 0.00 | 0.00 | 0.00 | 73 | 1019.6 |
| 20260510052750 | 6 | 197 | 0.0 | 0.0 | 0.00 | 0.00 | 0.00 | 73 | 1019.5 |
| 20260510052246 | 6 | 197 | 0.0 | 0.0 | 0.00 | 0.00 | 0.00 | 71 | 1019.6 |
| 20260510051742 | 6 | 150 | 0.0 | 0.0 | 0.00 | 0.00 | 0.00 | 73 | 1019.3 |
| 20260510051239 | 6 | 135 | 0.0 | 0.0 | 0.00 | 0.00 | 0.00 | 73 | 1019.6 |
| 20260510050736 | 6 | 122 | 0.0 | 0.0 | 0.00 | 0.00 | 0.00 | 75 | 1019.3 |
| 20260510050233 | 6 | 134 | 0.0 | 0.0 | 0.00 | 0.00 | 0.00 | 72 | 1019.3 |
| 20260510045730 | 6 | 198 | 0.0 | 0.0 | 0.00 | 0.00 | 0.00 | 71 | 1019.6 |
| 20260510045226 | 7 | 187 | 0.0 | 0.0 | 0.00 | 0.00 | 0.00 | 73 | 1019.6 |
| 20260510044723 | 7 | 113 | 0.0 | 0.0 | 0.00 | 0.00 | 0.00 | 74 | 1019.3 |
| 20260510044221 | 7 | 204 | 0.0 | 0.0 | 0.00 | 0.00 | 0.00 | 68 | 1019.2 |
| 20260510043716 | 7 | 155 | 0.0 | 0.0 | 0.00 | 0.00 | 0.00 | 69 | 1019.1 |
| 20260510043213 | 7 | 154 | 0.0 | 0.0 | 0.00 | 0.00 | 0.00 | 74 | 1019.5 |
| 20260510042710 | 7 | 147 | 0.0 | 0.0 | 0.00 | 0.00 | 0.00 | 73 | 1018.7 |
| 20260510042206 | 7 | 133 | 0.0 | 0.0 | 0.00 | 0.00 | 0.00 | 71 | 1019.1 |
| 20260510041703 | 7 | 179 | 0.0 | 0.0 | 0.00 | 0.00 | 0.00 | 67 | 1019.1 |
| 20260510041201 | 8 | 188 | 0.0 | 0.0 | 0.00 | 0.00 | 0.00 | 63 | 1019.1 |
| 20260510040657 | 7 | 177 | 0.0 | 0.0 | 0.00 | 0.00 | 0.00 | 68 | 1018.8 |
| 20260510040154 | 7 | 140 | 0.0 | 0.0 | 0.00 | 0.00 | 0.00 | 69 | 1019.0 |
| 20260510035649 | 8 | 108 | 0.0 | 0.0 | 0.00 | 0.00 | 0.00 | 69 | 1018.7 |
| 20260510035145 | 8 | 148 | 0.0 | 0.0 | 0.00 | 0.00 | 0.00 | 67 | 1018.7 |
| 20260510034642 | 8 | 129 | 0.0 | 0.0 | 0.00 | 0.00 | 0.00 | 69 | 1018.7 |
| 20260510034139 | 9 | 127 | 0.0 | 0.0 | 0.00 | 0.00 | 0.00 | 66 | 1018.7 |
| 20260510033635 | 9 | 181 | 0.0 | 0.0 | 0.00 | 0.00 | 0.00 | 60 | 1018.5 |
| 20260510033133 | 9 | 175 | 0.0 | 0.0 | 0.00 | 0.00 | 0.00 | 60 | 1018.5 |
| 20260510032629 | 9 | 175 | 0.0 | 0.0 | 0.00 | 0.00 | 0.00 | 60 | 1018.4 |
| 20260510032125 | 10 | 177 | 0.0 | 0.0 | 0.00 | 0.00 | 0.00 | 58 | 1018.4 |
| 20260510031620 | 10 | 177 | 0.0 | 0.0 | 0.00 | 0.00 | 0.00 | 62 | 1018.4 |
| 20260510031117 | 10 | 160 | 0.0 | 0.0 | 0.00 | 0.00 | 0.00 | 59 | 1018.4 |
| 20260510030611 | 11 | 154 | 0.0 | 0.0 | 0.00 | 0.00 | 0.00 | 61 | 1018.2 |
| 20260510030109 | 10 | 150 | 0.0 | 0.0 | 0.00 | 0.00 | 0.00 | 54 | 1018.0 |
| 20260510025606 | 10 | 176 | 0.0 | 0.0 | 0.00 | 0.00 | 0.00 | 64 | 1017.9 |
| 20260510025104 | 10 | 112 | 0.0 | 0.0 | 0.00 | 0.00 | 0.00 | 58 | 1017.9 |
| 20260510024600 | 10 | 183 | 0.0 | 0.0 | 0.00 | 0.00 | 0.00 | 57 | 1017.8 |
| 20260510024056 | 11 | 183 | 0.0 | 0.0 | 0.00 | 0.00 | 0.00 | 64 | 1017.3 |
| 20260510023553 | 11 | 170 | 0.0 | 0.0 | 0.00 | 0.00 | 0.00 | 60 | 1017.6 |
| 20260510023050 | 11 | 215 | 0.0 | 0.0 | 0.00 | 0.00 | 0.00 | 57 | 1017.5 |
| 20260510022549 | 12 | 137 | 0.0 | 0.0 | 0.00 | 0.00 | 0.00 | 63 | 1017.4 |
| 20260510022044 | 12 | 175 | 0.0 | 0.0 | 0.00 | 0.00 | 0.00 | 58 | 1017.1 |
| 20260510021540 | 12 | 142 | 0.0 | 0.0 | 0.00 | 0.00 | 0.00 | 60 | 1017.5 |
| 20260510021038 | 13 | 160 | 0.0 | 0.0 | 0.00 | 0.00 | 0.00 | 57 | 1017.3 |
| 20260510020532 | 13 | 174 | 0.0 | 0.0 | 0.00 | 0.00 | 0.00 | 52 | 1017.3 |
| 20260510020028 | 13 | 157 | 0.0 | 0.0 | 0.00 | 0.00 | 0.00 | 57 | 1017.0 |
| 20260510015524 | 13 | 158 | 0.0 | 0.0 | 0.00 | 0.00 | 0.00 | 55 | 1017.1 |
| 20260510015020 | 14 | 127 | 0.0 | 0.0 | 0.00 | 0.00 | 0.00 | 58 | 1016.9 |
| 20260510014517 | 15 | 132 | 0.0 | 0.0 | 0.00 | 0.00 | 0.00 | 54 | 1016.7 |
| 20260510014014 | 15 | 147 | 0.0 | 0.0 | 0.00 | 0.00 | 0.00 | 48 | 1017.1 |
| 20260510013509 | 16 | 144 | 0.0 | 0.0 | 0.00 | 0.00 | 0.00 | 46 | 1017.0 |
| 20260510013005 | 16 | 220 | 0.0 | 0.0 | 0.00 | 0.00 | 0.00 | 42 | 1017.0 |
| 20260510012459 | 16 | 196 | 0.0 | 0.0 | 0.00 | 0.00 | 0.00 | 42 | 1017.1 |
| 20260510011955 | 16 | 185 | 0.0 | 0.0 | 0.00 | 0.00 | 0.00 | 43 | 1016.9 |
| 20260510011449 | 16 | 175 | 0.0 | 0.0 | 0.00 | 0.00 | 0.00 | 42 | 1017.0 |
| 20260510010945 | 17 | 165 | 0.0 | 0.0 | 0.00 | 0.00 | 0.00 | 47 | 1017.0 |
| 20260510010443 | 17 | 152 | 0.0 | 0.0 | 0.00 | 0.00 | 0.00 | 43 | 1016.9 |
| 20260510005940 | 18 | 153 | 0.0 | 0.0 | 0.00 | 0.00 | 0.00 | 36 | 1016.8 |
| 20260510005436 | 18 | 161 | 0.0 | 0.0 | 0.00 | 0.00 | 0.00 | 31 | 1016.9 |
| 20260510004933 | 18 | 99 | 0.0 | 0.0 | 0.00 | 0.00 | 0.00 | 34 | 1017.0 |
| 20260510004430 | 19 | 118 | 0.0 | 1.6 | 0.00 | 0.00 | 0.00 | 32 | 1016.8 |
| 20260510003929 | 19 | 78 | 1.6 | 1.6 | 0.00 | 0.00 | 0.00 | 30 | 1017.0 |
| 20260510003425 | 20 | 244 | 3.2 | 3.2 | 0.00 | 0.00 | 0.00 | 31 | 1016.9 |
| 20260510002924 | 20 | 60 | 1.6 | 3.2 | 0.00 | 0.00 | 0.00 | 31 | 1017.1 |
| 20260510002422 | 20 | 112 | 0.0 | 1.6 | 0.00 | 0.00 | 0.00 | 33 | 1017.3 |
| 20260510001918 | 20 | 135 | 1.6 | 1.6 | 0.00 | 0.00 | 0.00 | 32 | 1017.3 |
| 20260510001416 | 20 | 132 | 1.6 | 1.6 | 0.00 | 0.00 | 0.00 | 34 | 1017.3 |
| 20260510000913 | 20 | 102 | 1.6 | 1.6 | 0.00 | 0.00 | 0.00 | 32 | 1017.4 |
| 20260510000411 | 20 | 86 | 1.6 | 3.2 | 0.00 | 0.00 | 0.00 | 32 | 1017.0 |
| 20260509235905 | 20 | 297 | 0.0 | 0.0 | 0.00 | 0.00 | 0.00 | 33 | 1017.1 |
| 20260509235403 | 20 | 171 | 0.0 | 0.0 | 0.00 | 0.00 | 0.00 | 30 | 1017.0 |
| 20260509234858 | 20 | 101 | 1.6 | 1.6 | 0.00 | 0.00 | 0.00 | 31 | 1017.5 |
| 20260509234356 | 20 | 105 | 0.0 | 3.2 | 0.00 | 0.00 | 0.00 | 31 | 1017.4 |
| 20260509233854 | 20 | 75 | 3.2 | 4.8 | 0.00 | 0.00 | 0.00 | 31 | 1017.4 |
| 20260509233351 | 20 | 101 | 3.2 | 4.8 | 0.00 | 0.00 | 0.00 | 32 | 1017.1 |
| 20260509232846 | 20 | 72 | 1.6 | 3.2 | 0.00 | 0.00 | 0.00 | 29 | 1018.0 |
| 20260509232345 | 19 | 105 | 3.2 | 4.8 | 0.00 | 0.00 | 0.00 | 29 | 1017.8 |
| 20260509231840 | 19 | 36 | 1.6 | 1.6 | 0.00 | 0.00 | 0.00 | 29 | 1017.8 |
| 20260509231338 | 19 | 26 | 3.2 | 4.8 | 0.00 | 0.00 | 0.00 | 29 | 1017.9 |
| 20260509230836 | 18 | 8 | 3.2 | 4.8 | 0.00 | 0.00 | 0.00 | 31 | 1018.1 |
| 20260509230332 | 18 | 59 | 4.8 | 8.0 | 0.00 | 0.00 | 0.00 | 30 | 1018.2 |
| 20260509225827 | 18 | 156 | 4.8 | 8.0 | 0.00 | 0.00 | 0.00 | 31 | 1018.6 |
| 20260509225324 | 18 | 37 | 6.4 | 8.0 | 0.00 | 0.00 | 0.00 | 31 | 1018.7 |
| 20260509224821 | 18 | 212 | 1.6 | 1.6 | 0.00 | 0.00 | 0.00 | 29 | 1018.6 |
| 20260509224317 | 18 | 359 | 3.2 | 4.8 | 0.00 | 0.00 | 0.00 | 29 | 1018.5 |
| 20260509223813 | 19 | 66 | 6.4 | 9.7 | 0.00 | 0.00 | 0.00 | 29 | 1018.2 |
| 20260509223310 | 19 | 291 | 1.6 | 1.6 | 0.00 | 0.00 | 0.00 | 29 | 1018.2 |
| 20260509222807 | 20 | 224 | 3.2 | 8.0 | 0.00 | 0.00 | 0.00 | 26 | 1018.1 |
| 20260509222306 | 21 | 33 | 9.7 | 16.1 | 0.00 | 0.00 | 0.00 | 26 | 1017.3 |
| 20260509221758 | 22 | 63 | 4.8 | 8.0 | 0.00 | 0.00 | 0.00 | 23 | 1016.4 |
| 20260509221256 | 22 | 83 | 1.6 | 1.6 | 0.00 | 0.00 | 0.00 | 21 | 1016.4 |
| 20260509220751 | 22 | 291 | 6.4 | 9.7 | 0.00 | 0.00 | 0.00 | 21 | 1016.3 |
| 20260509220248 | 22 | 69 | 1.6 | 1.6 | 0.00 | 0.00 | 0.00 | 21 | 1016.4 |
| 20260509215743 | 23 | 149 | 1.6 | 1.6 | 0.00 | 0.00 | 0.00 | 19 | 1016.4 |
| 20260509215240 | 23 | 164 | 0.0 | 1.6 | 0.00 | 0.00 | 0.00 | 20 | 1016.3 |
| 20260509214737 | 24 | 233 | 1.6 | 1.6 | 0.00 | 0.00 | 0.00 | 19 | 1016.5 |
| 20260509214234 | 24 | 208 | 1.6 | 1.6 | 0.00 | 0.00 | 0.00 | 20 | 1016.8 |
| 20260509213731 | 23 | 32 | 9.7 | 12.9 | 0.00 | 0.00 | 0.00 | 22 | 1016.4 |
| 20260509213226 | 23 | 65 | 4.8 | 8.0 | 0.00 | 0.00 | 0.00 | 21 | 1016.7 |
| 20260509212724 | 24 | 105 | 3.2 | 3.2 | 0.00 | 0.00 | 0.00 | 19 | 1016.9 |
| 20260509212221 | 23 | 137 | 1.6 | 3.2 | 0.00 | 0.00 | 0.00 | 21 | 1016.8 |
| 20260509211717 | 25 | 246 | 4.8 | 8.0 | 0.00 | 0.00 | 0.00 | 19 | 1017.1 |
| 20260509211214 | 24 | 86 | 1.6 | 1.6 | 0.00 | 0.00 | 0.00 | 20 | 1017.0 |
| 20260509210710 | 22 | 322 | 3.2 | 4.8 | 0.00 | 0.00 | 0.00 | 21 | 1016.9 |
| 20260509210208 | 23 | 306 | 6.4 | 9.7 | 0.00 | 0.00 | 0.00 | 21 | 1017.1 |
| 20260509205707 | 23 | 284 | 9.7 | 12.9 | 0.00 | 0.00 | 0.00 | 20 | 1017.1 |
| 20260509205207 | 23 | 265 | 1.6 | 1.6 | 0.00 | 0.00 | 0.00 | 19 | 1017.1 |
| 20260509204703 | 25 | 94 | 4.8 | 4.8 | 0.00 | 0.00 | 0.00 | 21 | 1016.8 |
| 20260509204200 | 22 | 261 | 1.6 | 1.6 | 0.00 | 0.00 | 0.00 | 23 | 1016.9 |
| 20260509203655 | 21 | 156 | 4.8 | 4.8 | 0.00 | 0.00 | 0.00 | 23 | 1017.1 |
| 20260509203154 | 21 | 84 | 4.8 | 8.0 | 0.00 | 0.00 | 0.00 | 23 | 1017.0 |
| 20260509202649 | 22 | 299 | 8.0 | 11.3 | 0.00 | 0.00 | 0.00 | 20 | 1017.0 |
| 20260509202144 | 22 | 67 | 3.2 | 3.2 | 0.00 | 0.00 | 0.00 | 19 | 1017.1 |
| 20260509201640 | 22 | 205 | 1.6 | 1.6 | 0.00 | 0.00 | 0.00 | 20 | 1017.1 |
| 20260509201137 | 23 | 304 | 4.8 | 4.8 | 0.00 | 0.00 | 0.00 | 20 | 1017.1 |
| 20260509200633 | 24 | 300 | 8.0 | 9.7 | 0.00 | 0.00 | 0.00 | 21 | 1017.4 |
| 20260509200128 | 24 | 265 | 1.6 | 1.6 | 0.00 | 0.00 | 0.00 | 18 | 1017.4 |
| 20260509195625 | 23 | 268 | 11.3 | 14.5 | 0.00 | 0.00 | 0.00 | 20 | 1017.4 |
| 20260509195120 | 23 | 100 | 0.0 | 1.6 | 0.00 | 0.00 | 0.00 | 23 | 1017.0 |
| 20260509194619 | 22 | 328 | 0.0 | 1.6 | 0.00 | 0.00 | 0.00 | 22 | 1017.1 |
| 20260509194117 | 23 | 219 | 4.8 | 8.0 | 0.00 | 0.00 | 0.00 | 21 | 1016.9 |
| 20260509193612 | 23 | 223 | 1.6 | 4.8 | 0.00 | 0.00 | 0.00 | 19 | 1017.0 |
| 20260509193108 | 23 | 250 | 6.4 | 9.7 | 0.00 | 0.00 | 0.00 | 21 | 1016.8 |
| 20260509192605 | 23 | 209 | 1.6 | 3.2 | 0.00 | 0.00 | 0.00 | 19 | 1017.1 |
| 20260509192054 | 23 | 242 | 1.6 | 1.6 | 0.00 | 0.00 | 0.00 | 20 | 1017.1 |
| 20260509191549 | 23 | 359 | 1.6 | 1.6 | 0.00 | 0.00 | 0.00 | 19 | 1017.3 |
| 20260509191045 | 24 | 272 | 1.6 | 3.2 | 0.00 | 0.00 | 0.00 | 19 | 1017.3 |
| 20260509190542 | 22 | 3 | 3.2 | 3.2 | 0.00 | 0.00 | 0.00 | 22 | 1017.4 |
| 20260509190040 | 22 | 233 | 4.8 | 4.8 | 0.00 | 0.00 | 0.00 | 20 | 1017.4 |
| 20260509185537 | 22 | 341 | 4.8 | 8.0 | 0.00 | 0.00 | 0.00 | 19 | 1017.3 |
| 20260509185033 | 22 | 3 | 9.7 | 11.3 | 0.00 | 0.00 | 0.00 | 19 | 1017.1 |
| 20260509184532 | 21 | 31 | 4.8 | 8.0 | 0.00 | 0.00 | 0.00 | 23 | 1017.1 |
| 20260509184028 | 20 | 274 | 1.6 | 3.2 | 0.00 | 0.00 | 0.00 | 26 | 1016.9 |
| 20260509183523 | 21 | 224 | 0.0 | 1.6 | 0.00 | 0.00 | 0.00 | 25 | 1017.3 |
| 20260509183019 | 20 | 144 | 1.6 | 1.6 | 0.00 | 0.00 | 0.00 | 29 | 1017.3 |
| 20260509182516 | 21 | 247 | 3.2 | 9.7 | 0.00 | 0.00 | 0.00 | 25 | 1017.3 |
| 20260509182013 | 21 | 221 | 4.8 | 9.7 | 0.00 | 0.00 | 0.00 | 22 | 1017.1 |
| 20260509181511 | 19 | 199 | 1.6 | 3.2 | 0.00 | 0.00 | 0.00 | 33 | 1017.1 |
| 20260509181010 | 20 | 83 | 1.6 | 1.6 | 0.00 | 0.00 | 0.00 | 37 | 1017.4 |
| 20260509180503 | 21 | 2 | 6.4 | 9.7 | 0.00 | 0.00 | 0.00 | 23 | 1017.6 |
| 20260509180002 | 22 | 140 | 3.2 | 4.8 | 0.00 | 0.00 | 0.00 | 23 | 1017.3 |
| 20260509175457 | 22 | 247 | 3.2 | 3.2 | 0.00 | 0.00 | 0.00 | 23 | 1017.6 |
| 20260509174954 | 23 | 265 | 11.3 | 16.1 | 0.00 | 0.00 | 0.00 | 19 | 1017.8 |
| 20260509174450 | 23 | 209 | 4.8 | 4.8 | 0.00 | 0.00 | 0.00 | 19 | 1017.5 |
| 20260509173944 | 23 | 233 | 11.3 | 14.5 | 0.00 | 0.00 | 0.00 | 19 | 1017.3 |
| 20260509173439 | 22 | 64 | 6.4 | 9.7 | 0.00 | 0.00 | 0.00 | 20 | 1017.5 |
| 20260509172936 | 22 | 198 | 1.6 | 3.2 | 0.00 | 0.00 | 0.00 | 25 | 1017.6 |
| 20260509172433 | 22 | 86 | 4.8 | 4.8 | 0.00 | 0.00 | 0.00 | 21 | 1017.4 |
| 20260509171928 | 22 | 195 | 1.6 | 1.6 | 0.00 | 0.00 | 0.00 | 22 | 1017.5 |
| 20260509171424 | 22 | 117 | 4.8 | 9.7 | 0.00 | 0.00 | 0.00 | 21 | 1017.8 |
| 20260509170921 | 22 | 271 | 3.2 | 8.0 | 0.00 | 0.00 | 0.00 | 25 | 1017.5 |
| 20260509170417 | 21 | 343 | 3.2 | 4.8 | 0.00 | 0.00 | 0.00 | 24 | 1017.5 |
| 20260509165913 | 22 | 108 | 0.0 | 1.6 | 0.00 | 0.00 | 0.00 | 25 | 1017.9 |
| 20260509165407 | 23 | 209 | 1.6 | 1.6 | 0.00 | 0.00 | 0.00 | 25 | 1017.6 |
| 20260509164903 | 23 | 249 | 1.6 | 4.8 | 0.00 | 0.00 | 0.00 | 26 | 1017.4 |
| 20260509164359 | 22 | 70 | 1.6 | 3.2 | 0.00 | 0.00 | 0.00 | 28 | 1017.4 |
| 20260509163855 | 22 | 261 | 3.2 | 3.2 | 0.00 | 0.00 | 0.00 | 24 | 1017.8 |
| 20260509163352 | 21 | 273 | 3.2 | 4.8 | 0.00 | 0.00 | 0.00 | 26 | 1017.5 |
| 20260509162851 | 22 | 29 | 1.6 | 3.2 | 0.00 | 0.00 | 0.00 | 29 | 1017.8 |
| 20260509162344 | 21 | 107 | 0.0 | 1.6 | 0.00 | 0.00 | 0.00 | 34 | 1017.5 |
| 20260509161841 | 21 | 44 | 1.6 | 1.6 | 0.00 | 0.00 | 0.00 | 30 | 1017.8 |
| 20260509161337 | 20 | 156 | 0.0 | 0.0 | 0.00 | 0.00 | 0.00 | 29 | 1017.6 |
| 20260509160833 | 20 | 107 | 0.0 | 1.6 | 0.00 | 0.00 | 0.00 | 38 | 1017.5 |
| 20260509160329 | 20 | 139 | 1.6 | 1.6 | 0.00 | 0.00 | 0.00 | 32 | 1017.9 |
| 20260509155824 | 19 | 276 | 0.0 | 0.0 | 0.00 | 0.00 | 0.00 | 37 | 1018.1 |
| 20260509155321 | 19 | 117 | 1.6 | 1.6 | 0.00 | 0.00 | 0.00 | 40 | 1017.9 |
| 20260509154817 | 20 | 272 | 3.2 | 3.2 | 0.00 | 0.00 | 0.00 | 36 | 1018.0 |
| 20260509154313 | 19 | 111 | 1.6 | 3.2 | 0.00 | 0.00 | 0.00 | 32 | 1018.2 |
| 20260509153810 | 18 | 203 | 0.0 | 0.0 | 0.00 | 0.00 | 0.00 | 32 | 1018.0 |
| 20260509153307 | 18 | 115 | 0.0 | 0.0 | 0.00 | 0.00 | 0.00 | 42 | 1018.0 |
| 20260509152804 | 18 | 87 | 0.0 | 1.6 | 0.00 | 0.00 | 0.00 | 37 | 1018.0 |
| 20260509152300 | 18 | 145 | 0.0 | 0.0 | 0.00 | 0.00 | 0.00 | 35 | 1018.4 |
| 20260509151757 | 17 | 59 | 0.0 | 0.0 | 0.00 | 0.00 | 0.00 | 38 | 1018.4 |
| 20260509151253 | 16 | 102 | 0.0 | 0.0 | 0.00 | 0.00 | 0.00 | 43 | 1018.2 |
| 20260509150752 | 16 | 99 | 1.6 | 3.2 | 0.00 | 0.00 | 0.00 | 37 | 1018.7 |
| 20260509150250 | 15 | 106 | 0.0 | 1.6 | 0.00 | 0.00 | 0.00 | 40 | 1018.5 |
| 20260509145746 | 14 | 96 | 0.0 | 0.0 | 0.00 | 0.00 | 0.00 | 45 | 1018.6 |
| 20260509145246 | 13 | 134 | 0.0 | 0.0 | 0.00 | 0.00 | 0.00 | 49 | 1018.7 |
| 20260509144743 | 13 | 119 | 0.0 | 0.0 | 0.00 | 0.00 | 0.00 | 50 | 1018.5 |
| 20260509144239 | 12 | 131 | 0.0 | 0.0 | 0.00 | 0.00 | 0.00 | 49 | 1018.8 |
| 20260509143737 | 12 | 143 | 0.0 | 0.0 | 0.00 | 0.00 | 0.00 | 45 | 1018.8 |
| 20260509143234 | 12 | 116 | 0.0 | 0.0 | 0.00 | 0.00 | 0.00 | 60 | 1018.8 |
| 20260509142730 | 11 | 145 | 1.6 | 1.6 | 0.00 | 0.00 | 0.00 | 61 | 1019.1 |
| 20260509142226 | 11 | 150 | 0.0 | 0.0 | 0.00 | 0.00 | 0.00 | 63 | 1019.0 |
| 20260509141722 | 11 | 136 | 0.0 | 0.0 | 0.00 | 0.00 | 0.00 | 70 | 1018.7 |
| 20260509141220 | 10 | 134 | 0.0 | 0.0 | 0.00 | 0.00 | 0.00 | 72 | 1019.0 |
| 20260509140716 | 10 | 174 | 0.0 | 0.0 | 0.00 | 0.00 | 0.00 | 62 | 1019.0 |
| 20260509140214 | 10 | 133 | 0.0 | 0.0 | 0.00 | 0.00 | 0.00 | 60 | 1018.8 |
| 20260509135711 | 10 | 97 | 0.0 | 0.0 | 0.00 | 0.00 | 0.00 | 56 | 1019.1 |
| 20260509135209 | 10 | 128 | 0.0 | 0.0 | 0.00 | 0.00 | 0.00 | 73 | 1019.0 |
| 20260509134705 | 10 | 133 | 0.0 | 0.0 | 0.00 | 0.00 | 0.00 | 75 | 1019.0 |
| 20260509134203 | 10 | 134 | 0.0 | 0.0 | 0.00 | 0.00 | 0.00 | 70 | 1019.0 |
| 20260509133700 | 9 | 152 | 0.0 | 0.0 | 0.00 | 0.00 | 0.00 | 61 | 1019.2 |
| 20260509133157 | 7 | 141 | 0.0 | 0.0 | 0.00 | 0.00 | 0.00 | 71 | 1019.0 |
| 20260509132655 | 6 | 154 | 0.0 | 0.0 | 0.00 | 0.00 | 0.00 | 78 | 1018.8 |
| 20260509132153 | 5 | 173 | 0.0 | 0.0 | 0.00 | 0.00 | 0.00 | 81 | 1019.0 |
| 20260509131649 | 5 | 162 | 0.0 | 0.0 | 0.00 | 0.00 | 0.00 | 83 | 1018.8 |
| 20260509131146 | 4 | 155 | 0.0 | 0.0 | 0.00 | 0.00 | 0.00 | 83 | 1018.8 |
| 20260509130642 | 4 | 130 | 0.0 | 0.0 | 0.00 | 0.00 | 0.00 | 82 | 1018.6 |
| 20260509130138 | 3 | 135 | 0.0 | 0.0 | 0.00 | 0.00 | 0.00 | 84 | 1018.5 |
| 20260509125635 | 3 | 155 | 0.0 | 0.0 | 0.00 | 0.00 | 0.00 | 75 | 1018.6 |
| 20260509125132 | 4 | 125 | 0.0 | 0.0 | 0.00 | 0.00 | 0.00 | 83 | 1018.7 |
| 20260509124628 | 3 | 181 | 0.0 | 0.0 | 0.00 | 0.00 | 0.00 | 76 | 1018.6 |
| 20260509124125 | 3 | 192 | 0.0 | 0.0 | 0.00 | 0.00 | 0.00 | 82 | 1018.4 |
| 20260509123623 | 3 | 208 | 0.0 | 0.0 | 0.00 | 0.00 | 0.00 | 76 | 1018.2 |
| 20260509123120 | 3 | 210 | 0.0 | 0.0 | 0.00 | 0.00 | 0.00 | 74 | 1018.2 |
| 20260509122615 | 3 | 152 | 0.0 | 0.0 | 0.00 | 0.00 | 0.00 | 75 | 1018.2 |
| 20260509122113 | 3 | 222 | 0.0 | 0.0 | 0.00 | 0.00 | 0.00 | 74 | 1018.5 |
| 20260509121609 | 3 | 219 | 0.0 | 0.0 | 0.00 | 0.00 | 0.00 | 78 | 1018.2 |
| 20260509121107 | 3 | 194 | 0.0 | 0.0 | 0.00 | 0.00 | 0.00 | 75 | 1018.0 |
| 20260509120605 | 2 | 204 | 0.0 | 0.0 | 0.00 | 0.00 | 0.00 | 77 | 1018.2 |
| 20260509115600 | 2 | 191 | 0.0 | 0.0 | 0.00 | 0.00 | 0.00 | 79 | 1018.1 |
| 20260509115058 | 2 | 207 | 0.0 | 0.0 | 0.00 | 0.00 | 0.00 | 79 | 1018.0 |
| 20260509114555 | 2 | 210 | 0.0 | 0.0 | 0.00 | 0.00 | 0.00 | 85 | 1017.9 |
| 20260509114054 | 2 | 161 | 0.0 | 0.0 | 0.00 | 0.00 | 0.00 | 85 | 1017.8 |
| 20260509113552 | 2 | 161 | 0.0 | 0.0 | 0.00 | 0.00 | 0.00 | 84 | 1017.9 |
| 20260509113049 | 2 | 155 | 0.0 | 0.0 | 0.00 | 0.00 | 0.00 | 83 | 1017.9 |
| 20260509112545 | 2 | 171 | 0.0 | 0.0 | 0.00 | 0.00 | 0.00 | 78 | 1018.0 |
| 20260509112043 | 2 | 183 | 0.0 | 0.0 | 0.00 | 0.00 | 0.00 | 78 | 1018.0 |
| 20260509111540 | 2 | 148 | 0.0 | 0.0 | 0.00 | 0.00 | 0.00 | 77 | 1018.0 |
| 20260509111037 | 2 | 191 | 0.0 | 0.0 | 0.00 | 0.00 | 0.00 | 78 | 1017.8 |
| 20260509110534 | 2 | 201 | 0.0 | 0.0 | 0.00 | 0.00 | 0.00 | 79 | 1017.9 |
| 20260509110031 | 2 | 146 | 0.0 | 0.0 | 0.00 | 0.00 | 0.00 | 82 | 1017.9 |
| 20260509105529 | 2 | 166 | 0.0 | 0.0 | 0.00 | 0.00 | 0.00 | 81 | 1017.6 |
| 20260509105026 | 2 | 166 | 0.0 | 0.0 | 0.00 | 0.00 | 0.00 | 80 | 1017.9 |
| 20260509104523 | 2 | 184 | 0.0 | 0.0 | 0.00 | 0.00 | 0.00 | 79 | 1017.5 |
| 20260509104020 | 2 | 146 | 0.0 | 0.0 | 0.00 | 0.00 | 0.00 | 81 | 1017.6 |
| 20260509103518 | 2 | 145 | 0.0 | 0.0 | 0.00 | 0.00 | 0.00 | 84 | 1017.6 |
| 20260509103016 | 2 | 153 | 0.0 | 0.0 | 0.00 | 0.00 | 0.00 | 82 | 1017.9 |
| 20260509102513 | 2 | 195 | 0.0 | 0.0 | 0.00 | 0.00 | 0.00 | 83 | 1017.6 |
| 20260509102010 | 2 | 190 | 0.0 | 0.0 | 0.00 | 0.00 | 0.00 | 82 | 1017.8 |
| 20260509101506 | 2 | 138 | 0.0 | 0.0 | 0.00 | 0.00 | 0.00 | 80 | 1017.8 |
| 20260509101003 | 2 | 164 | 0.0 | 0.0 | 0.00 | 0.00 | 0.00 | 82 | 1018.0 |
| 20260509100500 | 2 | 183 | 0.0 | 0.0 | 0.00 | 0.00 | 0.00 | 81 | 1018.0 |
| 20260509095957 | 3 | 152 | 0.0 | 0.0 | 0.00 | 0.00 | 0.00 | 85 | 1017.8 |
| 20260509095453 | 3 | 134 | 0.0 | 0.0 | 0.00 | 0.00 | 0.00 | 84 | 1018.2 |
| 20260509094951 | 3 | 162 | 0.0 | 0.0 | 0.00 | 0.00 | 0.00 | 80 | 1018.0 |
| 20260509094447 | 3 | 193 | 0.0 | 0.0 | 0.00 | 0.00 | 0.00 | 79 | 1018.1 |
| 20260509093945 | 3 | 180 | 0.0 | 0.0 | 0.00 | 0.00 | 0.00 | 83 | 1017.9 |
| 20260509093442 | 3 | 162 | 0.0 | 0.0 | 0.00 | 0.00 | 0.00 | 80 | 1017.8 |
| 20260509092940 | 3 | 162 | 0.0 | 0.0 | 0.00 | 0.00 | 0.00 | 81 | 1017.9 |
| 20260509092438 | 3 | 128 | 0.0 | 0.0 | 0.00 | 0.00 | 0.00 | 81 | 1017.9 |
| 20260509091936 | 4 | 111 | 0.0 | 0.0 | 0.00 | 0.00 | 0.00 | 79 | 1017.9 |
| 20260509091433 | 3 | 187 | 0.0 | 0.0 | 0.00 | 0.00 | 0.00 | 73 | 1018.0 |
| 20260509090930 | 3 | 167 | 0.0 | 0.0 | 0.00 | 0.00 | 0.00 | 76 | 1017.9 |
| 20260509090427 | 3 | 165 | 0.0 | 0.0 | 0.00 | 0.00 | 0.00 | 78 | 1018.0 |
| 20260509085925 | 3 | 126 | 0.0 | 0.0 | 0.00 | 0.00 | 0.00 | 79 | 1018.0 |
| 20260509085421 | 3 | 185 | 0.0 | 0.0 | 0.00 | 0.00 | 0.00 | 79 | 1017.5 |
| 20260509084917 | 3 | 184 | 0.0 | 0.0 | 0.00 | 0.00 | 0.00 | 81 | 1017.8 |
| 20260509084415 | 3 | 172 | 0.0 | 0.0 | 0.00 | 0.00 | 0.00 | 80 | 1018.0 |
| 20260509083912 | 4 | 109 | 0.0 | 0.0 | 0.00 | 0.00 | 0.00 | 79 | 1018.0 |
| 20260509083409 | 4 | 196 | 0.0 | 0.0 | 0.00 | 0.00 | 0.00 | 74 | 1017.6 |
| 20260509082906 | 3 | 196 | 0.0 | 0.0 | 0.00 | 0.00 | 0.00 | 75 | 1017.8 |
| 20260509082403 | 3 | 198 | 0.0 | 0.0 | 0.00 | 0.00 | 0.00 | 77 | 1018.0 |
| 20260509081900 | 3 | 161 | 0.0 | 0.0 | 0.00 | 0.00 | 0.00 | 75 | 1017.9 |
| 20260509081357 | 3 | 156 | 0.0 | 0.0 | 0.00 | 0.00 | 0.00 | 77 | 1017.9 |
| 20260509080854 | 4 | 126 | 0.0 | 0.0 | 0.00 | 0.00 | 0.00 | 76 | 1017.9 |
| 20260509080352 | 4 | 124 | 0.0 | 0.0 | 0.00 | 0.00 | 0.00 | 77 | 1017.8 |
| 20260509075851 | 3 | 161 | 0.0 | 0.0 | 0.00 | 0.00 | 0.00 | 74 | 1017.6 |
| 20260509075347 | 4 | 167 | 0.0 | 0.0 | 0.00 | 0.00 | 0.00 | 71 | 1018.0 |
| 20260509074844 | 4 | 167 | 0.0 | 0.0 | 0.00 | 0.00 | 0.00 | 74 | 1018.2 |
| 20260509074342 | 4 | 168 | 0.0 | 0.0 | 0.00 | 0.00 | 0.00 | 75 | 1018.1 |
| 20260509073838 | 4 | 161 | 0.0 | 0.0 | 0.00 | 0.00 | 0.00 | 74 | 1017.6 |
| 20260509073335 | 4 | 160 | 0.0 | 0.0 | 0.00 | 0.00 | 0.00 | 74 | 1018.0 |
| 20260509072831 | 5 | 160 | 0.0 | 0.0 | 0.00 | 0.00 | 0.00 | 75 | 1018.0 |
| 20260509072328 | 5 | 149 | 0.0 | 0.0 | 0.00 | 0.00 | 0.00 | 73 | 1017.9 |
| 20260509071824 | 5 | 121 | 0.0 | 0.0 | 0.00 | 0.00 | 0.00 | 73 | 1018.2 |
| 20260509071322 | 5 | 185 | 0.0 | 0.0 | 0.00 | 0.00 | 0.00 | 71 | 1017.9 |
| 20260509070819 | 5 | 199 | 0.0 | 0.0 | 0.00 | 0.00 | 0.00 | 73 | 1018.1 |
| 20260509070315 | 5 | 130 | 0.0 | 0.0 | 0.00 | 0.00 | 0.00 | 76 | 1018.2 |
| 20260509065812 | 5 | 121 | 0.0 | 0.0 | 0.00 | 0.00 | 0.00 | 76 | 1018.4 |
| 20260509065308 | 5 | 192 | 0.0 | 0.0 | 0.00 | 0.00 | 0.00 | 73 | 1018.2 |
| 20260509064804 | 5 | 193 | 0.0 | 0.0 | 0.00 | 0.00 | 0.00 | 75 | 1018.0 |
| 20260509064302 | 5 | 139 | 0.0 | 0.0 | 0.00 | 0.00 | 0.00 | 77 | 1018.1 |
| 20260509063759 | 6 | 139 | 0.0 | 0.0 | 0.00 | 0.00 | 0.00 | 72 | 1018.2 |
| 20260509063255 | 6 | 138 | 0.0 | 0.0 | 0.00 | 0.00 | 0.00 | 70 | 1018.1 |
| 20260509062753 | 6 | 184 | 0.0 | 0.0 | 0.00 | 0.00 | 0.00 | 62 | 1018.2 |
| 20260509062249 | 5 | 192 | 0.0 | 0.0 | 0.00 | 0.00 | 0.00 | 67 | 1018.0 |
| 20260509061747 | 6 | 167 | 0.0 | 0.0 | 0.00 | 0.00 | 0.00 | 76 | 1018.1 |
| 20260509061244 | 6 | 121 | 0.0 | 0.0 | 0.00 | 0.00 | 0.00 | 73 | 1018.0 |